FW0153 Weather Reports


time (UTC)temp
C
wind
direction
speed
KPH
gust
KPH
rain 1hr
cm
rain 24hr
cm
rain mn
cm
humidity
%
barometer
mb
20260904135505 26 78 14.5 0.0 0.00 0.00 0.00 79 1010.6
20260904135212 26 133 14.5 0.0 0.00 0.00 0.00 79 1010.6
20260904134505 26 101 20.9 0.0 0.00 0.00 0.00 79 1010.6
20260904134005 26 47 6.4 0.0 0.00 0.00 0.00 80 1010.6
20260904133505 26 129 6.4 0.0 0.00 0.00 0.00 81 1010.6
20260904133005 26 134 6.4 0.0 0.00 0.00 0.00 81 1010.6
20260904132505 26 94 14.5 0.0 0.00 0.00 0.00 81 1010.6
20260904132005 26 127 0.0 0.0 0.00 0.00 0.00 82 1010.3
20260904131504 26 88 6.4 0.0 0.00 0.00 0.00 82 1010.6
20260904131005 26 24 14.5 0.0 0.00 0.00 0.00 83 1010.3
20260904130505 25 111 0.0 0.0 0.00 0.00 0.00 83 1010.6
20260904130005 25 76 6.4 0.0 0.00 0.00 0.00 84 1010.3
20260904125505 25 110 6.4 0.0 0.00 0.00 0.00 84 1010.3
20260904125005 25 141 0.0 0.0 0.00 0.00 0.00 84 1010.3
20260904124505 25 53 14.5 0.0 0.00 0.00 0.00 85 1010.3
20260904124005 25 149 0.0 0.0 0.00 0.00 0.00 85 1010.3
20260904123712 25 115 6.4 0.0 0.00 0.00 0.00 85 1010.3
20260904123005 25 34 6.4 0.0 0.00 0.00 0.00 86 1009.9
20260904122505 25 116 14.5 0.0 0.00 0.00 0.00 86 1010.3
20260904122211 25 73 6.4 0.0 0.00 0.00 0.00 86 1010.3
20260904121505 25 120 0.0 0.0 0.00 0.00 0.00 86 1009.6
20260904121005 25 110 0.0 0.0 0.00 0.00 0.00 86 1009.9
20260904120505 25 114 6.4 0.0 0.00 0.00 0.00 86 1009.9
20260904120213 25 119 14.5 0.0 0.00 0.00 0.00 86 1009.6
20260904115505 25 115 0.0 0.0 0.00 0.00 0.00 86 1009.6
20260904115005 25 124 0.0 0.0 0.00 0.00 0.00 86 1009.6
20260904114505 25 93 14.5 0.0 0.00 0.00 0.00 86 1009.6
20260904114004 25 115 0.0 0.0 0.00 0.00 0.00 86 1009.3
20260904113505 25 58 6.4 0.0 0.00 0.00 0.00 86 1009.6
20260904113005 25 102 14.5 0.0 0.00 0.00 0.00 86 1009.6
20260904112505 25 138 0.0 0.0 0.00 0.00 0.00 86 1009.6
20260904112005 25 108 0.0 0.0 0.00 0.00 0.00 85 1009.3
20260904111505 25 121 0.0 0.0 0.00 0.00 0.00 85 1009.6
20260904111005 25 134 0.0 0.0 0.00 0.00 0.00 85 1009.6
20260904110505 25 111 0.0 0.0 0.00 0.00 0.00 85 1009.6
20260904110005 25 91 0.0 0.0 0.00 0.00 0.00 85 1009.6
20260904105504 25 107 0.0 0.0 0.00 0.00 0.00 85 1009.6
20260904105213 25 124 0.0 0.0 0.00 0.00 0.00 84 1009.6
20260904104505 25 89 0.0 0.0 0.00 0.00 0.00 84 1009.6
20260904104004 25 93 6.4 0.0 0.00 0.00 0.00 84 1009.6
20260904103714 26 48 14.5 0.0 0.00 0.00 0.00 83 1009.6
20260904103005 26 128 0.0 0.0 0.00 0.00 0.00 83 1009.3
20260904102711 26 109 0.0 0.0 0.00 0.00 0.00 82 1009.3
20260904102005 26 150 14.5 0.0 0.00 0.00 0.00 82 1009.3
20260904101505 26 92 6.4 0.0 0.00 0.00 0.00 82 1008.9
20260904101005 26 116 6.4 0.0 0.00 0.00 0.00 82 1009.3
20260904100713 26 116 0.0 0.0 0.00 0.00 0.00 82 1009.3
20260904100212 26 71 0.0 0.0 0.00 0.00 0.00 82 1009.6
20260904095711 26 121 6.4 0.0 0.00 0.00 0.00 82 1009.3
20260904095005 26 179 14.5 0.0 0.00 0.00 0.00 82 1009.3
20260904094711 26 126 6.4 0.0 0.00 0.00 0.00 81 1009.6
20260904094005 26 162 14.5 0.0 0.00 0.00 0.00 81 1009.6
20260904093505 26 115 6.4 0.0 0.00 0.00 0.00 81 1009.6
20260904093212 26 118 6.4 0.0 0.00 0.00 0.00 81 1009.6
20260904092713 26 105 0.0 0.0 0.00 0.00 0.00 81 1009.3
20260904092005 26 91 6.4 0.0 0.00 0.00 0.00 81 1009.3
20260904091505 26 74 6.4 0.0 0.00 0.00 0.00 81 1009.6
20260904091005 26 95 14.5 0.0 0.00 0.00 0.00 80 1009.6
20260904090713 26 53 0.0 0.0 0.00 0.00 0.00 80 1009.3
20260904090005 26 28 6.4 0.0 0.00 0.00 0.00 80 1009.6
20260904085505 26 120 6.4 0.0 0.00 0.00 0.00 80 1009.6
20260904085005 26 188 14.5 0.0 0.00 0.00 0.00 80 1009.6
20260904084505 26 84 6.4 0.0 0.00 0.00 0.00 79 1009.6
20260904084212 26 99 20.9 0.0 0.00 0.00 0.00 79 1009.6
20260904083505 26 121 6.4 0.0 0.00 0.00 0.00 80 1009.6
20260904083005 26 148 14.5 0.0 0.00 0.00 0.00 80 1009.6
20260904082504 26 113 0.0 0.0 0.00 0.00 0.00 80 1009.6
20260904082005 26 168 14.5 0.0 0.00 0.00 0.00 81 1009.9
20260904081505 26 129 0.0 0.0 0.00 0.00 0.00 80 1009.9
20260904081005 26 146 6.4 0.0 0.00 0.00 0.00 80 1009.9
20260904080505 26 124 0.0 0.0 0.00 0.00 0.00 80 1009.9
20260904080005 26 22 6.4 0.0 0.00 0.00 0.00 80 1009.9
20260904075505 26 27 6.4 0.0 0.00 0.00 0.00 80 1009.9
20260904075005 26 145 0.0 0.0 0.00 0.00 0.00 80 1009.9
20260904074712 26 121 6.4 0.0 0.00 0.00 0.00 80 1009.9
20260904074005 26 87 6.4 0.0 0.00 0.00 0.00 80 1009.9
20260904073505 26 115 0.0 0.0 0.00 0.00 0.00 80 1009.9
20260904073211 26 87 6.4 0.0 0.00 0.00 0.00 80 1009.9
20260904072505 26 60 14.5 0.0 0.00 0.00 0.00 80 1010.3
20260904072005 26 99 0.0 0.0 0.00 0.00 0.00 80 1010.3
20260904071505 26 70 29.0 0.0 0.00 0.00 0.00 80 1010.3
20260904071005 26 134 0.0 0.0 0.00 0.00 0.00 81 1010.3
20260904070505 26 70 6.4 0.0 0.00 0.00 0.00 81 1010.3
20260904070005 26 57 14.5 0.0 0.00 0.00 0.00 81 1010.3
20260904065505 26 38 14.5 0.0 0.00 0.00 0.00 80 1010.3
20260904065005 26 12 6.4 0.0 0.00 0.00 0.00 80 1010.3
20260904064504 26 28 6.4 0.0 0.00 0.00 0.00 80 1010.6
20260904064005 26 77 14.5 0.0 0.00 0.00 0.00 80 1010.6
20260904063505 26 75 14.5 0.0 0.00 0.00 0.00 80 1010.3
20260904063005 26 18 6.4 0.0 0.00 0.00 0.00 80 1010.3
20260904062712 26 116 6.4 0.0 0.00 0.00 0.00 80 1010.3
20260904062213 26 186 6.4 0.0 0.00 0.00 0.00 79 1010.3
20260904061505 26 104 14.5 0.0 0.00 0.00 0.00 79 1010.6
20260904061213 26 109 14.5 0.0 0.00 0.00 0.00 79 1010.3
20260904060712 26 114 29.0 0.0 0.00 0.00 0.00 79 1010.3
20260904060005 26 136 14.5 0.0 0.00 0.00 0.00 79 1010.3
20260904055505 26 73 0.0 0.0 0.00 0.00 0.00 79 1009.9
20260904055005 26 61 14.5 0.0 0.00 0.00 0.00 79 1010.6
20260904054505 26 127 6.4 0.0 0.00 0.00 0.00 78 1010.3
20260904054005 26 81 14.5 0.0 0.00 0.00 0.00 78 1010.3
20260904053505 26 34 20.9 0.0 0.00 0.00 0.00 78 1010.3
20260904053005 26 160 14.5 0.0 0.00 0.00 0.00 78 1010.3
20260904052212 26 41 14.5 0.0 0.00 0.00 0.00 79 1010.6
20260904051505 26 165 0.0 0.0 0.00 0.00 0.00 79 1010.6
20260904051006 26 129 0.0 0.0 0.00 0.00 0.00 79 1010.3
20260904050713 26 70 29.0 0.0 0.00 0.00 0.00 79 1010.6
20260904045505 26 222 29.0 0.0 0.00 0.00 0.00 78 1010.6
20260904045005 26 136 14.5 0.0 0.00 0.00 0.00 78 1010.6
20260904044505 26 82 14.5 0.0 0.00 0.00 0.00 78 1010.6
20260904044005 26 57 6.4 0.0 0.00 0.00 0.00 78 1010.6
20260904043713 26 53 14.5 0.0 0.00 0.00 0.00 78 1010.6
20260904043004 26 62 20.9 0.0 0.00 0.00 0.00 78 1010.3
20260904042505 27 76 20.9 0.0 0.00 0.00 0.00 77 1010.3
20260904042005 27 85 20.9 0.0 0.00 0.00 0.00 77 1010.6
20260904041505 27 166 6.4 0.0 0.00 0.00 0.00 77 1010.3
20260904041212 27 108 20.9 0.0 0.00 0.00 0.00 76 1010.3
20260904040505 27 151 14.5 0.0 0.00 0.00 0.00 76 1010.3
20260904040005 27 92 14.5 0.0 0.00 0.00 0.00 76 1010.3
20260904035505 27 85 20.9 0.0 0.00 0.00 0.00 76 1010.3
20260904035005 27 75 14.5 0.0 0.00 0.00 0.00 75 1010.3
20260904034504 27 179 14.5 0.0 0.00 0.00 0.00 75 1010.3
20260904034005 27 121 14.5 0.0 0.00 0.00 0.00 74 1010.3
20260904033505 27 38 20.9 0.0 0.00 0.00 0.00 74 1010.3
20260904033212 27 8 20.9 0.0 0.00 0.00 0.00 74 1009.9
20260904032713 27 89 14.5 0.0 0.00 0.00 0.00 73 1009.9
20260904032005 27 44 29.0 0.0 0.00 0.00 0.00 73 1009.6
20260904031713 27 89 14.5 0.0 0.00 0.00 0.00 73 1009.9
20260904031212 27 240 14.5 0.0 0.00 0.00 0.00 72 1009.6
20260904030713 27 61 14.5 0.0 0.00 0.00 0.00 72 1009.6
20260904030005 27 70 29.0 0.0 0.00 0.00 0.00 72 1009.6
20260904025505 27 83 6.4 0.0 0.00 0.00 0.00 72 1009.6
20260904025005 27 34 20.9 0.0 0.00 0.00 0.00 72 1009.6
20260904024505 27 92 29.0 0.0 0.00 0.00 0.00 71 1009.6
20260904024005 27 132 14.5 0.0 0.00 0.00 0.00 71 1009.6
20260904023505 27 153 6.4 0.0 0.00 0.00 0.00 71 1009.6
20260904023005 27 64 29.0 0.0 0.00 0.00 0.00 71 1009.6
20260904022505 27 76 20.9 0.0 0.00 0.00 0.00 70 1009.6
20260904022005 27 124 29.0 0.0 0.00 0.00 0.00 70 1009.3
20260904021505 27 67 51.5 0.0 0.00 0.00 0.00 70 1009.3
20260904021211 27 9 20.9 0.0 0.00 0.00 0.00 69 1009.3
20260904020505 28 58 14.5 0.0 0.00 0.00 0.00 69 1008.9
20260904020005 28 114 20.9 0.0 0.00 0.00 0.00 69 1009.3
20260904015712 28 126 14.5 0.0 0.00 0.00 0.00 69 1009.3
20260904015005 28 112 14.5 0.0 0.00 0.00 0.00 68 1008.9
20260904014505 28 126 6.4 0.0 0.00 0.00 0.00 67 1008.9
20260904014005 28 95 0.0 0.0 0.00 0.00 0.00 66 1008.6
20260904013505 28 62 37.0 0.0 0.00 0.00 0.00 66 1008.6
20260904013005 28 98 14.5 0.0 0.00 0.00 0.00 66 1008.6
20260904012504 28 116 14.5 0.0 0.00 0.00 0.00 66 1008.6
20260904012005 28 86 29.0 0.0 0.00 0.00 0.00 65 1008.6
20260904011505 28 141 6.4 0.0 0.00 0.00 0.00 64 1008.6
20260904011005 28 75 14.5 0.0 0.00 0.00 0.00 63 1008.2
20260904010504 28 12 0.0 0.0 0.00 0.00 0.00 63 1008.6
20260904010005 28 190 14.5 0.0 0.00 0.00 0.00 62 1007.9
20260904005505 29 27 20.9 0.0 0.00 0.00 0.00 61 1008.2
20260904005005 29 53 43.5 0.0 0.00 0.00 0.00 60 1007.9
20260904004505 29 84 6.4 0.0 0.00 0.00 0.00 58 1008.2
20260904004005 29 53 43.5 0.0 0.00 0.00 0.00 57 1007.9
20260904003505 30 82 20.9 0.0 0.00 0.00 0.00 57 1008.2
20260904003004 30 66 20.9 0.0 0.00 0.00 0.00 57 1008.2
20260904002505 30 161 14.5 0.0 0.00 0.00 0.00 56 1007.9
20260904002005 30 63 14.5 0.0 0.00 0.00 0.00 55 1007.9
20260904001505 30 60 20.9 0.0 0.00 0.00 0.00 54 1007.9
20260904001005 30 104 29.0 0.0 0.00 0.00 0.00 53 1007.9
20260904000505 30 152 20.9 0.0 0.00 0.00 0.00 53 1007.9
20260904000005 30 86 14.5 0.0 0.00 0.00 0.00 52 1007.9
20260903235711 30 52 14.5 0.0 0.00 0.00 0.00 51 1007.6
20260903235005 31 90 29.0 0.0 0.00 0.00 0.00 51 1007.6
20260903234711 31 110 6.4 0.0 0.00 0.00 0.00 50 1007.9
20260903234005 31 331 20.9 0.0 0.00 0.00 0.00 50 1007.6
20260903233505 31 70 37.0 0.0 0.00 0.00 0.00 50 1007.2
20260903233005 31 110 14.5 0.0 0.00 0.00 0.00 49 1007.6
20260903232505 31 176 29.0 0.0 0.00 0.00 0.00 48 1007.2
20260903232004 31 66 37.0 0.0 0.00 0.00 0.00 46 1007.6
20260903231505 32 82 43.5 0.0 0.00 0.00 0.00 45 1007.2
20260903231005 32 8 37.0 0.0 0.00 0.00 0.00 44 1007.2
20260903230505 32 178 20.9 0.0 0.00 0.00 0.00 43 1006.9
20260903230005 32 17 20.9 0.0 0.00 0.00 0.00 42 1007.2
20260903225505 33 109 20.9 0.0 0.00 0.00 0.00 42 1006.9
20260903225005 33 160 6.4 0.0 0.00 0.00 0.00 42 1006.9
20260903224504 33 129 14.5 0.0 0.00 0.00 0.00 42 1006.9
20260903224005 33 118 20.9 0.0 0.00 0.00 0.00 42 1006.9
20260903223505 33 193 14.5 0.0 0.00 0.00 0.00 41 1006.5
20260903223212 33 162 14.5 0.0 0.00 0.00 0.00 42 1006.5
20260903222505 33 132 37.0 0.0 0.00 0.00 0.00 40 1006.5
20260903222212 33 193 20.9 0.0 0.00 0.00 0.00 41 1006.5
20260903221505 33 64 37.0 0.0 0.00 0.00 0.00 42 1006.9
20260903221005 33 70 20.9 0.0 0.00 0.00 0.00 41 1006.5
20260903220505 33 331 37.0 0.0 0.00 0.00 0.00 41 1006.5
20260903220005 33 25 29.0 0.0 0.00 0.00 0.00 41 1006.5
20260903215713 34 85 20.9 0.0 0.00 0.00 0.00 39 1006.5
20260903215005 34 132 6.4 0.0 0.00 0.00 0.00 38 1006.2
20260903214505 33 182 20.9 0.0 0.00 0.00 0.00 40 1006.5
20260903214005 33 43 20.9 0.0 0.00 0.00 0.00 41 1006.5
20260903213504 33 69 20.9 0.0 0.00 0.00 0.00 40 1006.5
20260903213214 33 38 20.9 0.0 0.00 0.00 0.00 39 1006.5
20260903212504 35 166 37.0 0.0 0.00 0.00 0.00 37 1006.5
20260903212005 35 125 20.9 0.0 0.00 0.00 0.00 36 1006.5
20260903211505 35 354 20.9 0.0 0.00 0.00 0.00 36 1006.5
20260903211005 35 79 6.4 0.0 0.00 0.00 0.00 36 1006.9
20260903210505 35 37 14.5 0.0 0.00 0.00 0.00 36 1006.5
20260903210211 35 66 14.5 0.0 0.00 0.00 0.00 36 1006.9
20260903205505 35 40 6.4 0.0 0.00 0.00 0.00 36 1006.9
20260903205211 35 121 6.4 0.0 0.00 0.00 0.00 37 1006.9
20260903204505 35 160 14.5 0.0 0.00 0.00 0.00 37 1006.9
20260903204005 34 133 0.0 0.0 0.00 0.00 0.00 38 1007.2
20260903203505 35 56 29.0 0.0 0.00 0.00 0.00 37 1006.9
20260903203005 35 73 6.4 0.0 0.00 0.00 0.00 39 1006.9
20260903202505 35 142 29.0 0.0 0.00 0.00 0.00 39 1007.2
20260903202005 35 165 20.9 0.0 0.00 0.00 0.00 39 1007.2
20260903201505 35 83 6.4 0.0 0.00 0.00 0.00 39 1007.2
20260903201004 35 124 14.5 0.0 0.00 0.00 0.00 38 1007.2
20260903200505 35 71 20.9 0.0 0.00 0.00 0.00 41 1007.6
20260903200005 35 33 14.5 0.0 0.00 0.00 0.00 41 1007.6
20260903195505 35 64 20.9 0.0 0.00 0.00 0.00 40 1007.6
20260903195005 33 37 14.5 0.0 0.00 0.00 0.00 41 1007.6
20260903194505 34 8 29.0 0.0 0.00 0.00 0.00 42 1007.6
20260903194005 35 56 29.0 0.0 0.00 0.00 0.00 41 1007.9
20260903193505 35 72 14.5 0.0 0.00 0.00 0.00 41 1007.9
20260903193004 35 353 37.0 0.0 0.00 0.00 0.00 42 1007.9
20260903192505 35 359 14.5 0.0 0.00 0.00 0.00 42 1007.9
20260903192213 34 25 14.5 0.0 0.00 0.00 0.00 42 1007.9
20260903191505 34 172 6.4 0.0 0.00 0.00 0.00 42 1008.2
20260903191005 34 57 37.0 0.0 0.00 0.00 0.00 42 1008.2
20260903190505 35 108 20.9 0.0 0.00 0.00 0.00 41 1008.2
20260903190005 34 85 6.4 0.0 0.00 0.00 0.00 40 1008.2
20260903185505 34 119 20.9 0.0 0.00 0.00 0.00 41 1008.6
20260903185005 33 179 6.4 0.0 0.00 0.00 0.00 42 1008.6
20260903184711 33 309 20.9 0.0 0.00 0.00 0.00 44 1008.9
20260903184005 33 9 14.5 0.0 0.00 0.00 0.00 43 1008.6
20260903183505 33 161 20.9 0.0 0.00 0.00 0.00 41 1008.9
20260903183005 33 164 14.5 0.0 0.00 0.00 0.00 41 1008.9
20260903182505 33 150 20.9 0.0 0.00 0.00 0.00 43 1009.3
20260903182005 33 162 29.0 0.0 0.00 0.00 0.00 43 1008.9
20260903181711 33 48 14.5 0.0 0.00 0.00 0.00 43 1009.3
20260903181005 33 218 29.0 0.0 0.00 0.00 0.00 43 1009.3
20260903180711 33 138 14.5 0.0 0.00 0.00 0.00 43 1009.3
20260903180005 33 89 20.9 0.0 0.00 0.00 0.00 43 1009.3
20260903175505 33 157 20.9 0.0 0.00 0.00 0.00 44 1009.9
20260903175005 33 150 51.5 0.0 0.00 0.00 0.00 44 1009.6
20260903174505 32 39 6.4 0.0 0.00 0.00 0.00 46 1009.6
20260903174212 33 193 20.9 0.0 0.00 0.00 0.00 44 1009.6
20260903173505 32 167 37.0 0.0 0.00 0.00 0.00 46 1009.9
20260903173005 32 111 6.4 0.0 0.00 0.00 0.00 47 1009.9
20260903172711 32 101 20.9 0.0 0.00 0.00 0.00 49 1009.9
20260903172005 32 198 14.5 0.0 0.00 0.00 0.00 47 1010.3
20260903171505 32 126 6.4 0.0 0.00 0.00 0.00 46 1009.9
20260903171005 31 161 20.9 0.0 0.00 0.00 0.00 48 1010.3
20260903170505 32 237 37.0 0.0 0.00 0.00 0.00 47 1010.6
20260903170005 31 188 59.5 0.0 0.00 0.00 0.00 47 1010.6
20260903165505 31 182 20.9 0.0 0.00 0.00 0.00 50 1010.6
20260903165004 31 106 14.5 0.0 0.00 0.00 0.00 50 1010.6
20260903164505 31 111 37.0 0.0 0.00 0.00 0.00 49 1011.0
20260903164212 32 145 20.9 0.0 0.00 0.00 0.00 49 1010.6
20260903163505 31 57 14.5 0.0 0.00 0.00 0.00 50 1010.6
20260903163005 31 51 20.9 0.0 0.00 0.00 0.00 51 1011.0
20260903162504 31 164 43.5 0.0 0.00 0.00 0.00 52 1010.6
20260903162005 31 214 14.5 0.0 0.00 0.00 0.00 51 1011.0
20260903161713 31 272 6.4 0.0 0.00 0.00 0.00 52 1010.6
20260903161005 31 59 14.5 0.0 0.00 0.00 0.00 54 1011.0
20260903160505 31 176 29.0 0.0 0.00 0.00 0.00 53 1011.0
20260903160005 30 154 20.9 0.0 0.00 0.00 0.00 56 1010.6
20260903155505 30 145 14.5 0.0 0.00 0.00 0.00 56 1010.6
20260903155005 30 93 20.9 0.0 0.00 0.00 0.00 58 1010.6
20260903154505 30 76 37.0 0.0 0.00 0.00 0.00 57 1010.6
20260903154004 30 148 20.9 0.0 0.00 0.00 0.00 58 1010.6
20260903153505 30 104 29.0 0.0 0.00 0.00 0.00 59 1010.6
20260903153005 30 66 20.9 0.0 0.00 0.00 0.00 59 1010.6
20260903152505 30 148 14.5 0.0 0.00 0.00 0.00 59 1010.6
20260903152005 30 118 14.5 0.0 0.00 0.00 0.00 61 1011.0
20260903151505 30 138 20.9 0.0 0.00 0.00 0.00 62 1011.0
20260903151213 29 260 20.9 0.0 0.00 0.00 0.00 62 1011.3
20260903150505 29 146 20.9 0.0 0.00 0.00 0.00 63 1011.3
20260903150005 28 85 20.9 0.0 0.00 0.00 0.00 64 1011.0
20260903145505 28 114 20.9 0.0 0.00 0.00 0.00 66 1011.0
20260903145005 28 213 20.9 0.0 0.00 0.00 0.00 66 1011.0
20260903144505 28 226 14.5 0.0 0.00 0.00 0.00 67 1011.3
20260903144005 28 60 20.9 0.0 0.00 0.00 0.00 68 1011.0
20260903143712 28 170 6.4 0.0 0.00 0.00 0.00 69 1011.0
20260903143005 28 97 20.9 0.0 0.00 0.00 0.00 71 1011.0
20260903142505 28 50 14.5 0.0 0.00 0.00 0.00 72 1011.0
20260903142005 28 121 14.5 0.0 0.00 0.00 0.00 72 1011.3
20260903141504 27 4 20.9 0.0 0.00 0.00 0.00 74 1011.3
20260903141005 27 176 20.9 0.0 0.00 0.00 0.00 75 1011.0
20260903140712 27 341 14.5 0.0 0.00 0.00 0.00 75 1011.3
20260903140005 27 65 29.0 0.0 0.00 0.00 0.00 75 1011.3